EW7082 Weather Reports


Display with metric or nautical units.
time (UTC)temp
F
wind
direction
speed
MPH
gust
MPH
rain 1hr
in
rain 24hr
in
rain mn
in
humidity
%
barometer
mb
20260502194703 67 300 6.0 12.0 0.00 0.00 0.00 63 1017.7
20260502194205 67 308 6.0 12.0 0.00 0.00 0.00 62 1017.9
20260502193704 67 335 6.0 12.0 0.00 0.00 0.00 61 1017.9
20260502193204 67 277 7.0 12.0 0.00 0.00 0.00 63 1017.9
20260502192704 67 295 7.0 10.0 0.00 0.00 0.00 64 1017.9
20260502191704 67 285 7.0 12.0 0.00 0.00 0.00 64 1018.0
20260502191205 67 304 6.0 10.0 0.00 0.00 0.00 65 1018.0
20260502190704 67 313 5.0 9.0 0.00 0.00 0.00 66 1018.0
20260502190203 66 292 4.0 9.0 0.00 0.00 0.00 66 1018.0
20260502185705 66 297 6.0 12.0 0.00 0.00 0.00 66 1018.0
20260502185205 66 316 7.0 10.0 0.00 0.00 0.00 64 1018.1
20260502184704 66 286 6.0 10.0 0.00 0.00 0.00 66 1018.0
20260502184204 66 294 7.0 12.0 0.00 0.00 0.00 66 1018.1
20260502183704 66 287 8.0 12.0 0.00 0.00 0.00 66 1018.1
20260502183203 66 306 7.0 12.0 0.00 0.00 0.00 68 1018.1
20260502182704 65 307 8.0 12.0 0.00 0.00 0.00 66 1018.2
20260502182204 65 298 9.0 12.0 0.00 0.00 0.00 66 1018.2
20260502181705 65 289 6.0 12.0 0.00 0.00 0.00 67 1018.2
20260502181204 65 308 6.0 12.0 0.00 0.00 0.00 67 1018.3
20260502180205 65 316 7.0 12.0 0.00 0.00 0.00 68 1018.4
20260502170205 62 289 3.0 7.0 0.00 0.00 0.00 81 1018.6
20260502163205 58 258 2.0 3.0 0.00 0.00 0.00 96 1018.6
20260502162704 57 296 1.0 3.0 0.00 0.00 0.00 97 1018.5
20260502162205 57 276 2.0 3.0 0.00 0.00 0.00 97 1018.5
20260502161704 56 294 1.0 3.0 0.00 0.00 0.00 98 1018.5
20260502161204 56 277 0.0 3.0 0.00 0.00 0.00 98 1018.5
20260502160706 56 285 2.0 3.0 0.00 0.00 0.00 98 1018.5
20260502160204 55 265 0.0 2.0 0.00 0.00 0.00 98 1018.5
20260502152205 52 256 1.0 2.0 0.00 0.00 0.00 98 1018.4
20260502151703 52 238 2.0 3.0 0.00 0.00 0.00 98 1018.3
20260502151205 52 278 1.0 3.0 0.00 0.00 0.00 98 1018.3
20260502150704 51 293 0.0 1.0 0.00 0.00 0.00 98 1018.3
20260502150204 51 217 0.0 0.0 0.00 0.00 0.00 98 1018.3
20260502130704 49 258 3.0 6.0 0.00 0.00 0.00 97 1017.9
20260502130204 49 256 2.0 3.0 0.00 0.00 0.00 97 1017.9
20260502123204 50 247 2.0 3.0 0.00 0.00 0.00 97 1017.8
20260502122205 50 259 1.0 3.0 0.00 0.00 0.00 97 1017.7
20260502121703 50 236 2.0 3.0 0.00 0.00 0.00 97 1017.6
20260502121204 50 274 2.0 3.0 0.00 0.00 0.00 97 1017.6
20260502120705 49 223 0.0 2.0 0.00 0.00 0.00 97 1017.6
20260502120204 49 207 1.0 3.0 0.00 0.00 0.00 97 1017.6
20260502115703 49 235 1.0 3.0 0.00 0.00 0.00 97 1017.6
20260502115204 49 238 1.0 2.0 0.00 0.00 0.00 97 1017.6
20260502114204 49 234 1.0 3.0 0.00 0.00 0.00 97 1017.6
20260502113704 49 273 2.0 3.0 0.00 0.00 0.00 97 1017.4
20260502113204 49 253 3.0 6.0 0.00 0.00 0.00 97 1017.3
20260502112704 49 279 3.0 6.0 0.00 0.00 0.00 97 1017.4
20260502112206 49 318 2.0 3.0 0.00 0.00 0.00 97 1017.4
20260502111204 49 271 2.0 3.0 0.00 0.00 0.00 96 1017.5
20260502110705 49 243 0.0 1.0 0.00 0.00 0.00 96 1017.4
20260502110205 49 243 1.0 3.0 0.00 0.00 0.00 97 1017.3
20260502105206 49 244 1.0 3.0 0.00 0.00 0.00 96 1017.3
20260502104705 49 235 2.0 3.0 0.00 0.00 0.00 96 1017.3
20260502104204 49 249 3.0 3.0 0.00 0.00 0.00 96 1017.2
20260502103705 49 256 2.0 3.0 0.00 0.00 0.00 96 1017.2
20260502103204 49 257 3.0 7.0 0.00 0.00 0.00 96 1017.2
20260502102704 49 264 3.0 5.0 0.00 0.00 0.00 96 1017.2
20260502101703 50 264 3.0 3.0 0.00 0.00 0.00 96 1017.3
20260502101205 50 273 2.0 6.0 0.00 0.00 0.00 96 1017.4
20260502100705 50 267 2.0 6.0 0.00 0.00 0.00 96 1017.4
20260502100204 50 279 5.0 8.0 0.00 0.00 0.00 96 1017.3
20260502091205 50 262 4.0 9.0 0.00 0.00 0.00 94 1017.1
20260502090704 50 272 6.0 9.0 0.00 0.00 0.00 94 1017.1
20260502090205 50 270 5.0 8.0 0.00 0.00 0.00 94 1017.1
20260502071203 52 257 1.0 3.0 0.00 0.00 0.00 90 1017.1
20260502070704 52 271 3.0 3.0 0.00 0.00 0.00 90 1017.1
20260502070204 52 240 4.0 8.0 0.00 0.00 0.00 91 1017.0
20260502065704 52 254 6.0 12.0 0.00 0.00 0.00 91 1016.9
20260502065204 52 260 7.0 12.0 0.00 0.00 0.00 90 1016.9
20260502064705 52 269 8.0 12.0 0.00 0.00 0.00 90 1017.0
20260502064205 52 265 7.0 12.0 0.00 0.00 0.00 90 1017.0
20260502063203 52 275 7.0 12.0 0.00 0.00 0.00 90 1017.1
20260502062205 52 284 7.0 10.0 0.00 0.00 0.00 90 1017.0
20260502061205 53 270 6.0 12.0 0.00 0.00 0.00 89 1017.0
20260502060706 53 269 9.0 14.0 0.00 0.00 0.00 89 1016.8
20260502060203 53 263 8.0 14.0 0.00 0.00 0.00 89 1016.8
20260502055705 53 263 9.0 14.0 0.00 0.00 0.00 89 1016.8
20260502055204 53 267 10.0 15.0 0.00 0.00 0.00 89 1016.7
20260502054704 53 268 8.0 16.0 0.00 0.00 0.00 88 1016.7
20260502054204 53 266 7.0 12.0 0.00 0.00 0.00 88 1016.8
20260502053705 53 277 6.0 13.0 0.00 0.00 0.00 88 1016.8
20260502053205 53 266 9.0 14.0 0.00 0.00 0.00 88 1016.8
20260502052704 53 259 5.0 10.0 0.00 0.00 0.00 88 1016.7
20260502052204 53 261 3.0 7.0 0.00 0.00 0.00 88 1016.7
20260502051705 53 257 3.0 7.0 0.00 0.00 0.00 87 1016.7
20260502051204 53 268 3.0 7.0 0.00 0.00 0.00 87 1016.7
20260502050706 53 259 5.0 8.0 0.00 0.00 0.00 87 1016.5
20260502050204 53 259 5.0 8.0 0.00 0.00 0.00 87 1016.5
20260502045205 53 264 6.0 8.0 0.00 0.00 0.00 87 1016.5
20260502044705 53 271 6.0 8.0 0.00 0.00 0.00 87 1016.5
20260502044205 54 267 5.0 9.0 0.00 0.00 0.00 86 1016.5
20260502043705 54 270 5.0 9.0 0.00 0.00 0.00 86 1016.5
20260502043207 54 264 6.0 9.0 0.00 0.00 0.00 86 1016.5
20260502042703 54 269 5.0 9.0 0.00 0.00 0.00 86 1016.5
20260502042205 54 268 3.0 8.0 0.00 0.00 0.00 85 1016.4
20260502041705 54 241 5.0 10.0 0.00 0.00 0.00 85 1016.3
20260502040705 55 277 6.0 9.0 0.00 0.00 0.00 84 1016.2
20260502040204 55 257 6.0 12.0 0.00 0.00 0.00 84 1016.2
20260502035705 55 272 7.0 9.0 0.00 0.00 0.00 84 1016.1
20260502035204 55 281 6.0 12.0 0.00 0.00 0.00 84 1016.1
20260502034704 55 270 6.0 12.0 0.00 0.00 0.00 84 1016.1
20260502034204 55 277 6.0 12.0 0.00 0.00 0.00 84 1016.1
20260502033203 55 258 5.0 9.0 0.00 0.00 0.00 83 1016.1
20260502032706 55 283 7.0 12.0 0.00 0.00 0.00 83 1015.9
20260502031703 56 275 9.0 15.0 0.00 0.00 0.00 81 1015.9
20260502031204 57 286 10.0 15.0 0.00 0.00 0.00 79 1015.8
20260502030704 57 274 10.0 18.0 0.00 0.00 0.00 78 1015.8
20260502030204 58 274 9.0 13.0 0.00 0.00 0.00 77 1015.7
20260502025705 58 280 9.0 16.0 0.00 0.00 0.00 75 1015.6
20260502025205 58 265 9.0 14.0 0.00 0.00 0.00 75 1015.6
20260502024704 58 264 7.0 10.0 0.00 0.00 0.00 76 1015.7
20260502024204 58 276 7.0 12.0 0.00 0.00 0.00 76 1015.5
20260502023705 58 275 8.0 12.0 0.00 0.00 0.00 77 1015.5
20260502023205 58 274 9.0 14.0 0.00 0.00 0.00 77 1015.5
20260502022206 58 273 8.0 12.0 0.00 0.00 0.00 78 1015.6
20260502021704 58 263 5.0 9.0 0.00 0.00 0.00 80 1015.7
20260502021204 58 268 7.0 13.0 0.00 0.00 0.00 81 1015.6
20260502020705 58 263 6.0 10.0 0.00 0.00 0.00 83 1015.6
20260502020204 57 274 6.0 10.0 0.00 0.00 0.00 83 1015.6
20260502015204 57 286 7.0 12.0 0.00 0.00 0.00 84 1015.6
20260502014205 56 286 8.0 12.0 0.00 0.00 0.00 85 1015.7
20260502013705 56 278 6.0 10.0 0.00 0.00 0.00 85 1015.7
20260502013204 57 291 5.0 9.0 0.00 0.00 0.00 84 1015.8
20260502012704 57 262 5.0 12.0 0.00 0.00 0.00 84 1015.9
20260502012205 57 283 8.0 12.0 0.00 0.00 0.00 83 1015.9
20260502011204 58 281 7.0 12.0 0.00 0.00 0.00 83 1015.9
20260502010705 58 292 8.0 12.0 0.00 0.00 0.00 82 1016.0
20260502005704 58 263 9.0 14.0 0.00 0.00 0.00 83 1016.0
20260502003704 58 289 9.0 15.0 0.00 0.00 0.00 84 1016.0
20260502003204 57 278 7.0 12.0 0.00 0.00 0.00 86 1016.1
20260502002704 56 287 7.0 13.0 0.00 0.00 0.00 87 1016.1
20260502002205 56 276 10.0 16.0 0.00 0.00 0.00 86 1016.2
20260502001204 56 259 9.0 14.0 0.00 0.00 0.00 85 1016.2
20260502000705 56 271 10.0 15.0 0.00 0.00 0.00 84 1016.2
20260502000204 57 262 9.0 15.0 0.00 0.00 0.00 83 1016.1
20260501235704 58 261 9.0 14.0 0.00 0.00 0.00 83 1016.2
20260501234704 58 258 10.0 14.0 0.00 0.00 0.00 83 1016.3
20260501234205 58 268 10.0 14.0 0.00 0.00 0.00 82 1016.3
20260501233705 58 270 9.0 13.0 0.00 0.00 0.00 83 1016.2
20260501233204 59 273 7.0 12.0 0.00 0.00 0.00 83 1016.3
20260501232704 59 290 8.0 12.0 0.00 0.00 0.00 84 1016.3
20260501231705 57 265 10.0 15.0 0.00 0.00 0.00 84 1016.4
20260501231204 58 263 10.0 15.0 0.00 0.00 0.00 82 1016.5
20260501230704 58 259 9.0 13.0 0.00 0.00 0.00 83 1016.6
20260501230204 58 266 8.0 13.0 0.00 0.00 0.00 85 1016.5
20260501225704 57 270 7.0 12.0 0.00 0.00 0.00 85 1016.7
20260501225204 57 291 9.0 13.0 0.00 0.00 0.00 84 1016.7
20260501224703 57 267 9.0 13.0 0.00 0.00 0.00 83 1016.8
20260501224204 57 280 7.0 12.0 0.00 0.00 0.00 85 1016.7
20260501223705 57 290 5.0 9.0 0.00 0.00 0.00 87 1016.7
20260501223203 56 272 8.0 13.0 0.00 0.00 0.00 86 1016.8
20260501222704 56 281 7.0 12.0 0.00 0.00 0.00 85 1016.8
20260501221204 57 291 8.0 12.0 0.00 0.00 0.00 82 1017.0
20260501220204 58 302 6.0 10.0 0.00 0.00 0.00 81 1017.1
20260501215704 59 303 6.0 10.0 0.00 0.00 0.00 82 1017.2
20260501215204 59 304 7.0 10.0 0.00 0.00 0.00 82 1017.2
20260501214704 58 306 7.0 12.0 0.00 0.00 0.00 81 1017.2
20260501213204 60 301 6.0 10.0 0.00 0.00 0.00 80 1017.3
20260501212704 60 299 8.0 12.0 0.00 0.00 0.00 80 1017.3
20260501212206 60 279 6.0 9.0 0.00 0.00 0.00 81 1017.2
20260501211704 60 298 6.0 12.0 0.00 0.00 0.00 81 1017.3
20260501211204 59 282 9.0 12.0 0.00 0.00 0.00 78 1017.2
20260501210204 60 289 5.0 12.0 0.00 0.00 0.00 82 1017.2
20260501205704 60 276 5.0 10.0 0.00 0.00 0.00 82 1017.2
20260501204704 60 257 7.0 10.0 0.00 0.00 0.00 83 1017.2
20260501204203 59 287 5.0 9.0 0.00 0.00 0.00 84 1017.3
20260501203705 59 309 6.0 12.0 0.00 0.00 0.00 84 1017.3
20260501203205 59 305 6.0 12.0 0.00 0.00 0.00 84 1017.3
20260501202703 59 278 6.0 10.0 0.00 0.00 0.00 84 1017.4
20260501202205 59 314 5.0 9.0 0.00 0.00 0.00 85 1017.4
20260501201703 58 265 5.0 9.0 0.00 0.00 0.00 85 1017.5
20260501201204 58 308 7.0 9.0 0.00 0.00 0.00 84 1017.5
20260501200704 58 302 7.0 10.0 0.00 0.00 0.00 83 1017.4
20260501200205 59 315 5.0 9.0 0.00 0.00 0.00 84 1017.5
20260501195704 58 258 8.0 12.0 0.00 0.00 0.00 83 1017.4
20260501195204 58 271 6.0 10.0 0.00 0.00 0.00 85 1017.5